Current weather by "City, St" or "zip code"  
 
Advertise Here

Current Conditions: Hastings, Hastings Municipal Airport, NE

Fair


31.0 F

Last Updated on Feb 28 2021, 6:53 am CST
Humidity: 92%
Wind Speed: NW 10.4 mph
Barometer 29.93 in
Dewpoint: 28.9 F
Visibility: 10.00 mi
Precip: --
Heat Index: NA
Wind Chill: 22 F
Current conditions at:

Hastings, Hastings Municipal Airport, NE (KHSI)

Lat: 40.60056 Lon: 98.42583

Local Radar Image active severe weather and emergency alerts image image weather storm and storm spotter reports image weather observation monitoring service image
Local
Radar
Active
Alerts
Storm Reports Obs
Monitoring

Sign-up For Email & Text Message Weather Alert Notification Services


Advertise Here

Observation History for Hastings, Hastings Municipal Airport, NE


Time Wind
(mph)
Vis
(mi)
Weather Precip (in) Temperature (F) Relative
Humidity
Wind
Chill
(F)
Heat
Index
(F)
Pressure
Air Dwpt altimeter
(in)
sea level
(mb)
Rmks
6:53 am CST NW 10.4 10.00 Fair -- 31.0 28.9 92% 22 NA 29.93 1014.8
5:53 am CST NW 18.4 G 27.6 10.00 Overcast -- 33.0 28.9 85% 22 NA 29.92 1014.3
4:53 am CST NW 13.8 10.00 Mostly Cloudy -- 32.0 28.9 88% 22 NA 29.88 1013.1
3:53 am CST NW 11.5 10.00 Fair -- 31.0 28.9 92% 22 NA 29.84 1011.6
2:53 am CST NW 17.3 10.00 Partly Cloudy -- 31.0 28.9 92% 20 NA 29.84 1011.7
1:53 am CST NW 13.8 10.00 Fair -- 32.0 28.9 88% 22 NA 29.84 1011.6
12:53 am CST NW 16.1 10.00 Fair -- 34.0 30.0 85% 24 NA 29.82 1011.0
11:53 pm CST NW 8.1 6.00 Fog/Mist -- 35.0 32.0 89% 28 NA 29.80 1010.1
10:53 pm CST NW 5.8 7.00 Fair -- 36.0 33.1 89% 31 NA 29.79 1009.6
9:53 pm CST NW 10.4 5.00 Fog/Mist -- 36.0 34.0 93% 28 NA 29.76 1008.8
8:53 pm CST N 4.6 4.00 Fog/Mist -- 36.0 33.1 89% 32 NA 29.72 1007.6
7:53 pm CST N 8.1 4.00 Fog/Mist -- 37.0 34.0 89% 31 NA 29.70 1007.3
6:53 pm CST N 8.1 5.00 Fog/Mist -- 38.0 35.1 89% 32 NA 29.68 1006.6
5:53 pm CST N 8.1 5.00 Fog/Mist -- 42.0 37.9 85% 37 NA 29.65 1005.4
4:53 pm CST N 5.8 7.00 Fair -- 45.0 39.0 80% 42 NA 29.63 1004.4
3:53 pm CST N 4.6 9.00 Mostly Cloudy -- 46.0 39.0 77% 44 NA 29.63 1004.3
2:53 pm CST S 10.4 9.00 Overcast -- 45.0 39.0 80% 40 NA 29.64 1004.5
1:53 pm CST SE 15.0 G 24.2 6.00 Fog/Mist -- 41.0 37.0 86% 33 NA 29.63 1004.6
12:53 pm CST SE 13.8 G 29.9 10.00 Mostly Cloudy -- 42.0 35.1 76% 35 NA 29.70 1006.7
11:53 am CST E 21.9 G 29.9 10.00 A Few Clouds and Breezy -- 47.0 37.0 69% 39 NA 29.71 1006.9
10:53 am CST E 15.0 10.00 Fair -- 45.0 35.1 68% 38 NA 29.76 1008.5
9:53 am CST E 9.2 10.00 Fair -- 42.0 32.0 68% 36 NA 29.79 1009.8
8:53 am CST E 3.5 10.00 Fair -- 36.0 26.1 67% NA NA 29.81 1010.6
7:53 am CST N 0.0 10.00 Fair -- 28.0 23.0 81% NA NA 29.83 1011.6

Regional Weather Observation


Hastings, Hastings Municipal Airport, NE (KHSI)

Fair
31.0 F

Aurora, Aurora Municipal Airport, NE (KAUH)

Overcast
35.0 F

Kearney, Kearney Municipal Airport, NE (KEAR)

Overcast
32.0 F

Brewster Field Airport, NE (KHDE)

Overcast
31.0 F

Ord, Evelyn Sharp Field Airport, NE (KODX)

Light Freezing Rain Fog/Mist and Breezy
32.0 F

Lexington, Jim Kelly Field Airport, NE (KLXN)

Overcast
30.0 F
Advertise Here

Advertise Here